STARLINK-4046, 52842

Orbit data source: Space-Track

STARLINK-4046, 52842 is a payload satellite owned by SpaceX/Seattle (US) in LEO that was launched on Fri, 17 Jun 2022 UTC via an FALCON 9 launch vehicle from the Air Force Eastern Test Range (AFETR). Payload-class satellites include a variety of spacecraft equipped with specific instruments for various scientific and technological missions. These include communications satellites like Starlink; space stations such as the ISS; scientific satellites like the Hubble; Earth observation satellites from companies like Planet Labs, Umbra, and HawkEye 360; GPS; miniature CubeSats for education and research; and military/defense satellites.

Loading next visibility...
Identifier
52842, 2022-062N
Orbit
LEO
Country
Flag of USUS
Related business
Manufacturer
SpaceX/Seattle
Mission
Operational Commercial Communications
Bus & Motor
STARLINK, Unknown motor
Mass
297 kg wet, ~275 kg dry
Launch date (UTC)
2022-06-17 (4 years ago)
Launch vehicle
FALCON 9
Launch site
Air Force Eastern Test Range (AFETR)
Object type
Payload
Rocket body
Debris
Shape & HBR
Box + 1 Pan, 10.1 m
Radar Cross Section
13.562 m², Large (>1 m²)

Expand to show TLE details & history
Last TLE update: 18 hours ago

TLE from 18 hours ago
0 STARLINK-4046
1 52842U 22062N   25349.88281226  .00001873  00000-0  13579-3 0  9990
2 52842  53.2186  50.2673 0001336  89.6437 270.4708 15.08832751193136
Epoch: 2025-12-15T21:11Z
TLE epoch observation values (Epoch: 2025-12-15T21:11:14.979Z)
Latitude
-0.00003°
Longitude
7.67987°
Altitude
540.656 km
Speed
7.593 km/s
True Right ascension
03h 21m 04s
True Declination
0° 00' 00"
Sunlit
Object was in full shadow at epoch
Visualization orbit readout
Latitude
Unknown
Longitude
Unknown
Altitude
Unknown
Speed
Unknown
Apparent Right ascension
Unknown
Apparent Declination
Unknown
Sunlit
N/A
Visualization observer readout
Local Sidereal Time
13:41:30
Azimuth
Unknown
Elevation
Unknown
Doppler factor
Unknown
Orbital elements
Apogee altitude
540.935 km
Perigee altitude
539.086 km
Semi-major axis
6,918.147 km
Eccentricity
0.00013
Inclination
53.2186°
RAAN
50.2673°
Arg. of periapsis
89.6437°
True anomaly
270.45549°
Mean anomaly
270.4708°
Eccentric anomaly
270.46315°
Mean motion
3.77189 °/min
Orbital period
95.44 mins
BSTAR
0.00013579
Loading maneuver chart data...
Computing Atmospheric mass density...
Loading historical data...
Loading historical data...
Loading historical data...
Loading historical data...
Loading historical data...
Loading historical data...
Loading historical data...

Documentation

Showing up to 5 results
|